If you wish to contribute or participate in the discussions about articles you are invited to join SKYbrary as a registered user

 Actions

Andres Sabella Galvez International Airport

From SKYbrary Wiki

SCFA
Airport
ICAO: SCFA – IATA: ANF
Summary
Name Andres Sabella Galvez International Airport
Region South America and Caribbean
Territory Chile CL.gif
Location La Chimba, Antofagasta
Serving Antofagasta
Elevation 138.684 m <br />455 ft <br />455 ft138.684 m <br />
Type medium airport
Coordinates 23° 26' 40.12" S, 70° 26' 42.36" W
Runways
Designator Length Width Surface ROPS
1/19 2599 m8,526.903 ft <br /> 50 m164.042 ft <br /> ASP /


METAR
Observation SCFA 150500Z 23003KT 9999 OVC025 14/10 Q1017 NOSIG
Station Antofagasta
Date/Time 15 October 2021 05:00:00
Wind direction 230°
Wind speed 03 kts
Lowest cloud amount overcast
Temperature 14°C
Dew point 10°C
Humidity 76%
QNH 1017 hPa
Weather condition n/a

International airport 6.2 nm11,482.4 m <br />11.482 km <br />37,671.916 ft <br /> north of Antofagasta, Chile.

Climatology

Mild desert climate (Köppen climate classification BWn)

Maps

Terrain

Loading map...

Airport Layout

Loading map...


Accidents & Serious Incidents at or in vicinity of SCFA

None on SKYbrary